Weather History for Walla Walla, WA

Change the Weather History Date:

Tuesday, October 29, 2013

  Actual Average Record
Temperature  
Mean Temperature 42 °F -  
Max Temperature 50 °F 54 °F 69 °F (1975)
Min Temperature 33 °F 38 °F 21 °F (1971)
Degree Days  
Heating Degree Days 24    
Moisture  
Dew Point 25 °F    
Average Humidity 56    
Maximum Humidity 73    
Minimum Humidity 35    
Precipitation  
Precipitation 0.00 in - - ()
Sea Level Pressure  
Sea Level Pressure 30.03 in    
Wind  
Wind Speed 8 mph (SSW)    
Max Wind Speed 15 mph    
Max Gust Speed 22 mph    
Visibility 10 miles    
Events Snow    
Averages and records for this station are not official NWS values.
T = Trace of Precipitation, MM = Missing Value Source: NWS Daily Summary

Daily Weather History Graph

Daily Weather History Graph

Search for Another Location

Airport:

Trip Planner

Search our weather history database for the weather conditions in past years. The results will help you decide how hot, cold, wet, or windy it might be!

Date:

Astronomy

Oct. 29, 2013 Rise Set
Actual Time 7:30 AM PDT 5:42 PM PDT
Civil Twilight 6:59 AM PDT 6:13 PM PDT
Nautical Twilight 6:23 AM PDT 6:49 PM PDT
Astronomical Twilight 5:49 AM PDT 7:23 PM PDT
Moon 2:08 AM PDT (10/29) 3:13 PM PDT (10/29)
Length of Visible Light 11h 14m
Length of Day
10h 12m
Waning Crescent, 24% of the Moon is Illuminated
Oct 29
Waning Crescent
Nov 3
New
Nov 9
First Quarter
Nov 17
Full
Nov 25
Last Quarter

Hourly Weather History & Observations

Time (PDT) Temp. Windchill Dew Point Humidity Pressure Visibility Wind Dir Wind Speed Gust Speed Precip Events Conditions
12:53 AM 36.0 °F 29.0 °F 27.0 °F 70% 29.92 in 9.0 mi South 9.2 mph - 0.00 in Snow Light Snow
1:53 AM 36.0 °F 28.5 °F 26.1 °F 67% 29.94 in 9.0 mi SSW 10.4 mph - 0.00 in Snow Light Snow
2:53 AM 36.0 °F 28.0 °F 26.1 °F 67% 29.96 in 9.0 mi SSW 11.5 mph - 0.00 in Snow Light Snow
3:53 AM 35.1 °F 27.9 °F 25.0 °F 67% 29.97 in 10.0 mi SW 9.2 mph - 0.00 in   Clear
4:53 AM 35.1 °F 32.2 °F 25.0 °F 67% 29.99 in 10.0 mi SSE 3.5 mph - 0.00 in Snow Light Snow
5:53 AM 33.1 °F 26.1 °F 24.1 °F 70% 30.01 in 9.0 mi SSW 8.1 mph - 0.00 in   Clear
6:53 AM 33.1 °F 28.7 °F 24.1 °F 70% 30.02 in 8.0 mi South 4.6 mph - 0.00 in   Clear
7:53 AM 33.1 °F 27.7 °F 24.1 °F 70% 30.05 in 10.0 mi South 5.8 mph - N/A   Clear
8:53 AM 37.0 °F 31.6 °F 25.0 °F 62% 30.06 in 10.0 mi South 6.9 mph - 0.00 in Snow Light Snow
9:53 AM 39.9 °F 35.8 °F 25.0 °F 55% 30.07 in 10.0 mi South 5.8 mph - 0.00 in   Clear
10:53 AM 44.1 °F 37.1 °F 23.0 °F 43% 30.07 in 10.0 mi SW 15.0 mph 21.9 mph N/A   Clear
11:53 AM 46.0 °F 39.6 °F 21.9 °F 39% 30.07 in 10.0 mi SW 15.0 mph - N/A   Clear
12:53 PM 46.9 °F - 23.0 °F 39% 30.06 in 10.0 mi WSW 9.2 mph 19.6 mph N/A   Clear
1:53 PM 48.9 °F - 23.0 °F 36% 30.04 in 10.0 mi SW 6.9 mph - N/A   Clear
2:53 PM 50.0 °F - 23.0 °F 35% 30.03 in 10.0 mi West 9.2 mph - N/A   Clear
3:53 PM 50.0 °F - 23.0 °F 35% 30.03 in 10.0 mi WSW 8.1 mph - N/A   Clear
4:53 PM 48.9 °F - 21.9 °F 35% 30.03 in 10.0 mi Calm Calm - N/A   Clear
5:53 PM 46.9 °F - 23.0 °F 39% 30.03 in 10.0 mi Calm Calm - N/A   Clear
6:53 PM 42.1 °F 39.2 °F 25.0 °F 51% 30.04 in 10.0 mi SE 4.6 mph - N/A   Clear
7:53 PM 41.0 °F 36.4 °F 26.1 °F 55% 30.04 in 10.0 mi SE 6.9 mph - N/A   Clear
8:53 PM 36.0 °F 33.3 °F 26.1 °F 67% 30.05 in 9.0 mi ESE 3.5 mph - 0.00 in Snow Light Snow
9:53 PM 37.0 °F - 26.1 °F 65% 30.05 in 10.0 mi Calm Calm - 0.00 in   Clear
10:53 PM 35.1 °F - 26.1 °F 70% 30.05 in 10.0 mi Calm Calm - N/A   Clear
11:53 PM 34.0 °F 28.8 °F 26.1 °F 73% 30.05 in 10.0 mi ESE 5.8 mph - N/A   Clear